owner,sensor,date,latitude,longitude,air_pressure(mBar),qcFlag 
DISL,ioos:station:DISL:DISL:1,2019-01-01T06:40:00Z,30.2513,-88.0778,1017.610195,1111122 
DISL,ioos:station:DISL:DISL:1,2019-01-01T07:40:00Z,30.2513,-88.0778,1017.271556,1111122 
DISL,ioos:station:DISL:DISL:1,2019-01-01T08:40:00Z,30.2513,-88.0778,1016.932917,1111122 
DISL,ioos:station:DISL:DISL:1,2019-01-01T09:40:00Z,30.2513,-88.0778,1016.932917,1111122 
DISL,ioos:station:DISL:DISL:1,2019-01-01T10:40:00Z,30.2513,-88.0778,1016.932917,1111122 
DISL,ioos:station:DISL:DISL:1,2019-01-01T11:40:00Z,30.2513,-88.0778,1016.932917,1111122 
DISL,ioos:station:DISL:DISL:1,2019-01-01T12:40:00Z,30.2513,-88.0778,1018.287473,1111122 
DISL,ioos:station:DISL:DISL:1,2019-01-01T13:40:00Z,30.2513,-88.0778,1018.964751,1111122 
DISL,ioos:station:DISL:DISL:1,2019-01-01T14:40:00Z,30.2513,-88.0778,1019.642029,1111122 
DISL,ioos:station:DISL:DISL:1,2019-01-01T15:40:00Z,30.2513,-88.0778,1020.319307,1111122 
DISL,ioos:station:DISL:DISL:1,2019-01-01T16:40:00Z,30.2513,-88.0778,1020.319307,1111122 
DISL,ioos:station:DISL:DISL:1,2019-01-01T17:40:00Z,30.2513,-88.0778,1019.642029,1111122 
DISL,ioos:station:DISL:DISL:1,2019-01-01T18:40:00Z,30.2513,-88.0778,1018.964751,1111122 
DISL,ioos:station:DISL:DISL:1,2019-01-01T19:40:00Z,30.2513,-88.0778,1018.287473,1111122 
DISL,ioos:station:DISL:DISL:1,2019-01-01T21:10:00Z,30.2513,-88.0778,1019.642029,1111122 
DISL,ioos:station:DISL:DISL:1,2019-01-01T21:40:00Z,30.2513,-88.0778,1019.30339,1111122 
DISL,ioos:station:DISL:DISL:1,2019-01-01T22:40:00Z,30.2513,-88.0778,1019.642029,1111122 
DISL,ioos:station:DISL:DISL:1,2019-01-01T23:40:00Z,30.2513,-88.0778,1019.980668,1111122 
DISL,ioos:station:DISL:DISL:1,2019-01-02T00:40:00Z,30.2513,-88.0778,1019.642029,1111122 
DISL,ioos:station:DISL:DISL:1,2019-01-02T01:40:00Z,30.2513,-88.0778,1020.996585,1111122 
DISL,ioos:station:DISL:DISL:1,2019-01-02T02:40:00Z,30.2513,-88.0778,1021.335224,1111122 
DISL,ioos:station:DISL:DISL:1,2019-01-02T03:40:00Z,30.2513,-88.0778,1020.657946,1111122 
DISL,ioos:station:DISL:DISL:1,2019-01-02T04:40:00Z,30.2513,-88.0778,1020.319307,1111122 
DISL,ioos:station:DISL:DISL:1,2019-01-02T05:40:00Z,30.2513,-88.0778,1019.980668,1111122 
DISL,ioos:station:DISL:DISL:1,2019-01-02T06:40:00Z,30.2513,-88.0778,1019.642029,1111122 
DISL,ioos:station:DISL:DISL:1,2019-01-02T07:40:00Z,30.2513,-88.0778,1020.319307,1111122 
DISL,ioos:station:DISL:DISL:1,2019-01-02T08:40:00Z,30.2513,-88.0778,1019.642029,1111122 
DISL,ioos:station:DISL:DISL:1,2019-01-02T09:40:00Z,30.2513,-88.0778,1018.964751,1111122 
DISL,ioos:station:DISL:DISL:1,2019-01-02T10:40:00Z,30.2513,-88.0778,1018.964751,1111122 
DISL,ioos:station:DISL:DISL:1,2019-01-02T11:40:00Z,30.2513,-88.0778,1018.964751,1111122 
DISL,ioos:station:DISL:DISL:1,2019-01-02T12:40:00Z,30.2513,-88.0778,1019.642029,1111122 
DISL,ioos:station:DISL:DISL:1,2019-01-02T13:40:00Z,30.2513,-88.0778,1020.996585,1111122 
DISL,ioos:station:DISL:DISL:1,2019-01-02T14:40:00Z,30.2513,-88.0778,1021.673863,1111122 
DISL,ioos:station:DISL:DISL:1,2019-01-02T15:40:00Z,30.2513,-88.0778,1021.673863,1111122 
DISL,ioos:station:DISL:DISL:1,2019-01-02T16:40:00Z,30.2513,-88.0778,1020.657946,1111122 
DISL,ioos:station:DISL:DISL:1,2019-01-02T17:40:00Z,30.2513,-88.0778,1019.30339,1111122 
DISL,ioos:station:DISL:DISL:1,2019-01-02T18:40:00Z,30.2513,-88.0778,1017.948834,1111122 
DISL,ioos:station:DISL:DISL:1,2019-01-02T19:40:00Z,30.2513,-88.0778,1017.271556,1111122 
DISL,ioos:station:DISL:DISL:1,2019-01-02T20:40:00Z,30.2513,-88.0778,1016.932917,1111122 
DISL,ioos:station:DISL:DISL:1,2019-01-02T21:40:00Z,30.2513,-88.0778,1016.932917,1111122 
DISL,ioos:station:DISL:DISL:1,2019-01-02T22:40:00Z,30.2513,-88.0778,1017.271556,1111122 
DISL,ioos:station:DISL:DISL:1,2019-01-02T23:40:00Z,30.2513,-88.0778,1017.271556,1111122 
DISL,ioos:station:DISL:DISL:1,2019-01-03T00:40:00Z,30.2513,-88.0778,1017.610195,1111122 
DISL,ioos:station:DISL:DISL:1,2019-01-03T01:40:00Z,30.2513,-88.0778,1016.594278,1111122 
DISL,ioos:station:DISL:DISL:1,2019-01-03T02:40:00Z,30.2513,-88.0778,1016.594278,1111122 
DISL,ioos:station:DISL:DISL:1,2019-01-03T03:40:00Z,30.2513,-88.0778,1015.917,1111122 
DISL,ioos:station:DISL:DISL:1,2019-01-03T04:40:00Z,30.2513,-88.0778,1016.255639,1111122 
DISL,ioos:station:DISL:DISL:1,2019-01-03T05:40:00Z,30.2513,-88.0778,1015.578361,1111122 
DISL,ioos:station:DISL:DISL:1,2019-01-03T06:40:00Z,30.2513,-88.0778,1015.239722,1111122 
DISL,ioos:station:DISL:DISL:1,2019-01-03T07:40:00Z,30.2513,-88.0778,1015.239722,1111122 
DISL,ioos:station:DISL:DISL:1,2019-01-03T08:40:00Z,30.2513,-88.0778,1014.562444,1111122 
DISL,ioos:station:DISL:DISL:1,2019-01-03T09:40:00Z,30.2513,-88.0778,1014.223805,1111122 
DISL,ioos:station:DISL:DISL:1,2019-01-03T10:40:00Z,30.2513,-88.0778,1014.901083,1111122 
DISL,ioos:station:DISL:DISL:1,2019-01-03T11:40:00Z,30.2513,-88.0778,1014.901083,1111122 
DISL,ioos:station:DISL:DISL:1,2019-01-03T12:40:00Z,30.2513,-88.0778,1015.578361,1111122 
DISL,ioos:station:DISL:DISL:1,2019-01-03T13:40:00Z,30.2513,-88.0778,1016.594278,1111122 
DISL,ioos:station:DISL:DISL:1,2019-01-03T14:40:00Z,30.2513,-88.0778,1016.932917,1111122 
DISL,ioos:station:DISL:DISL:1,2019-01-03T15:40:00Z,30.2513,-88.0778,1017.271556,1111122 
DISL,ioos:station:DISL:DISL:1,2019-01-03T16:40:00Z,30.2513,-88.0778,1016.594278,1111122 
DISL,ioos:station:DISL:DISL:1,2019-01-03T17:40:00Z,30.2513,-88.0778,1015.239722,1111122 
DISL,ioos:station:DISL:DISL:1,2019-01-03T18:40:00Z,30.2513,-88.0778,1013.885166,1111122 
DISL,ioos:station:DISL:DISL:1,2019-01-03T19:40:00Z,30.2513,-88.0778,1013.546527,1111122 
DISL,ioos:station:DISL:DISL:1,2019-01-03T20:40:00Z,30.2513,-88.0778,1014.223805,1111122 
DISL,ioos:station:DISL:DISL:1,2019-01-03T21:40:00Z,30.2513,-88.0778,1013.546527,1111122 
DISL,ioos:station:DISL:DISL:1,2019-01-03T22:40:00Z,30.2513,-88.0778,1013.546527,1111122 
DISL,ioos:station:DISL:DISL:1,2019-01-03T23:40:00Z,30.2513,-88.0778,1012.869249,1111122 
DISL,ioos:station:DISL:DISL:1,2019-01-04T00:40:00Z,30.2513,-88.0778,1011.853332,1111122 
DISL,ioos:station:DISL:DISL:1,2019-01-04T01:40:00Z,30.2513,-88.0778,1011.176054,1111122 
DISL,ioos:station:DISL:DISL:1,2019-01-04T02:40:00Z,30.2513,-88.0778,1011.176054,1111122 
DISL,ioos:station:DISL:DISL:1,2019-01-04T03:40:00Z,30.2513,-88.0778,1010.160137,1111122 
DISL,ioos:station:DISL:DISL:1,2019-01-04T04:40:00Z,30.2513,-88.0778,1009.482859,1111122 
DISL,ioos:station:DISL:DISL:1,2019-01-04T05:40:00Z,30.2513,-88.0778,1009.482859,1111122 
DISL,ioos:station:DISL:DISL:1,2019-01-04T06:40:00Z,30.2513,-88.0778,1009.14422,1111122 
DISL,ioos:station:DISL:DISL:1,2019-01-04T07:40:00Z,30.2513,-88.0778,1009.821498,1111122 
DISL,ioos:station:DISL:DISL:1,2019-01-04T08:40:00Z,30.2513,-88.0778,1009.821498,1111122 
DISL,ioos:station:DISL:DISL:1,2019-01-04T09:40:00Z,30.2513,-88.0778,1009.14422,1111122 
DISL,ioos:station:DISL:DISL:1,2019-01-04T10:40:00Z,30.2513,-88.0778,1009.14422,1111122 
DISL,ioos:station:DISL:DISL:1,2019-01-04T11:40:00Z,30.2513,-88.0778,1010.160137,1111122 
DISL,ioos:station:DISL:DISL:1,2019-01-04T12:40:00Z,30.2513,-88.0778,1010.498776,1111122 
DISL,ioos:station:DISL:DISL:1,2019-01-04T13:40:00Z,30.2513,-88.0778,1011.853332,1111122 
DISL,ioos:station:DISL:DISL:1,2019-01-04T14:40:00Z,30.2513,-88.0778,1013.207888,1111122 
DISL,ioos:station:DISL:DISL:1,2019-01-04T15:40:00Z,30.2513,-88.0778,1013.207888,1111122 
DISL,ioos:station:DISL:DISL:1,2019-01-04T16:40:00Z,30.2513,-88.0778,1013.207888,1111122 
DISL,ioos:station:DISL:DISL:1,2019-01-04T17:40:00Z,30.2513,-88.0778,1011.853332,1111122 
DISL,ioos:station:DISL:DISL:1,2019-01-04T18:40:00Z,30.2513,-88.0778,1011.853332,1111122 
DISL,ioos:station:DISL:DISL:1,2019-01-04T19:40:00Z,30.2513,-88.0778,1010.837415,1111122 
DISL,ioos:station:DISL:DISL:1,2019-01-04T20:40:00Z,30.2513,-88.0778,1010.837415,1111122 
DISL,ioos:station:DISL:DISL:1,2019-01-04T21:40:00Z,30.2513,-88.0778,1011.514693,1111122 
DISL,ioos:station:DISL:DISL:1,2019-01-04T22:40:00Z,30.2513,-88.0778,1012.191971,1111122 
DISL,ioos:station:DISL:DISL:1,2019-01-04T23:40:00Z,30.2513,-88.0778,1012.869249,1111122 
DISL,ioos:station:DISL:DISL:1,2019-01-05T00:40:00Z,30.2513,-88.0778,1013.207888,1111122 
DISL,ioos:station:DISL:DISL:1,2019-01-05T01:40:00Z,30.2513,-88.0778,1014.223805,1111122 
DISL,ioos:station:DISL:DISL:1,2019-01-05T02:40:00Z,30.2513,-88.0778,1015.578361,1111122 
DISL,ioos:station:DISL:DISL:1,2019-01-05T03:40:00Z,30.2513,-88.0778,1015.578361,1111122 
DISL,ioos:station:DISL:DISL:1,2019-01-05T04:40:00Z,30.2513,-88.0778,1016.255639,1111122 
DISL,ioos:station:DISL:DISL:1,2019-01-05T05:40:00Z,30.2513,-88.0778,1016.594278,1111122 
DISL,ioos:station:DISL:DISL:1,2019-01-05T06:40:00Z,30.2513,-88.0778,1017.610195,1111122 
DISL,ioos:station:DISL:DISL:1,2019-01-05T07:40:00Z,30.2513,-88.0778,1017.610195,1111122 
DISL,ioos:station:DISL:DISL:1,2019-01-05T08:40:00Z,30.2513,-88.0778,1017.271556,1111122 
DISL,ioos:station:DISL:DISL:1,2019-01-05T09:40:00Z,30.2513,-88.0778,1018.287473,1111122 
DISL,ioos:station:DISL:DISL:1,2019-01-05T10:40:00Z,30.2513,-88.0778,1018.964751,1111122 
DISL,ioos:station:DISL:DISL:1,2019-01-05T11:40:00Z,30.2513,-88.0778,1018.964751,1111122 
DISL,ioos:station:DISL:DISL:1,2019-01-05T12:40:00Z,30.2513,-88.0778,1019.642029,1111122 
DISL,ioos:station:DISL:DISL:1,2019-01-05T13:40:00Z,30.2513,-88.0778,1020.657946,1111122 
DISL,ioos:station:DISL:DISL:1,2019-01-05T14:40:00Z,30.2513,-88.0778,1022.012502,1111122 
DISL,ioos:station:DISL:DISL:1,2019-01-05T15:40:00Z,30.2513,-88.0778,1022.68978,1111122 
DISL,ioos:station:DISL:DISL:1,2019-01-05T16:40:00Z,30.2513,-88.0778,1022.68978,1111122 
DISL,ioos:station:DISL:DISL:1,2019-01-05T17:40:00Z,30.2513,-88.0778,1021.673863,1111122 
DISL,ioos:station:DISL:DISL:1,2019-01-05T18:40:00Z,30.2513,-88.0778,1020.996585,1111122 
DISL,ioos:station:DISL:DISL:1,2019-01-05T19:40:00Z,30.2513,-88.0778,1020.657946,1111122 
DISL,ioos:station:DISL:DISL:1,2019-01-05T20:40:00Z,30.2513,-88.0778,1020.657946,1111122 
DISL,ioos:station:DISL:DISL:1,2019-01-05T21:40:00Z,30.2513,-88.0778,1020.657946,1111122 
DISL,ioos:station:DISL:DISL:1,2019-01-05T22:40:00Z,30.2513,-88.0778,1020.996585,1111122 
DISL,ioos:station:DISL:DISL:1,2019-01-05T23:40:00Z,30.2513,-88.0778,1021.335224,1111122 
DISL,ioos:station:DISL:DISL:1,2019-01-06T00:40:00Z,30.2513,-88.0778,1020.996585,1111122 
DISL,ioos:station:DISL:DISL:1,2019-01-06T01:40:00Z,30.2513,-88.0778,1021.673863,1111122 
DISL,ioos:station:DISL:DISL:1,2019-01-06T16:40:00Z,30.2513,-88.0778,1024.382975,1111122 
DISL,ioos:station:DISL:DISL:1,2019-01-06T17:40:00Z,30.2513,-88.0778,1023.367058,1111122 
DISL,ioos:station:DISL:DISL:1,2019-01-06T18:40:00Z,30.2513,-88.0778,1022.012502,1111122 
DISL,ioos:station:DISL:DISL:1,2019-01-06T19:40:00Z,30.2513,-88.0778,1021.673863,1111122 
DISL,ioos:station:DISL:DISL:1,2019-01-06T20:40:00Z,30.2513,-88.0778,1021.673863,1111122 
DISL,ioos:station:DISL:DISL:1,2019-01-06T21:40:00Z,30.2513,-88.0778,1021.335224,1111122 
DISL,ioos:station:DISL:DISL:1,2019-01-06T22:40:00Z,30.2513,-88.0778,1022.351141,1111122 
DISL,ioos:station:DISL:DISL:1,2019-01-06T23:40:00Z,30.2513,-88.0778,1022.012502,1111122 
DISL,ioos:station:DISL:DISL:1,2019-01-07T00:40:00Z,30.2513,-88.0778,1022.351141,1111122 
DISL,ioos:station:DISL:DISL:1,2019-01-07T01:40:00Z,30.2513,-88.0778,1022.351141,1111122 
DISL,ioos:station:DISL:DISL:1,2019-01-07T02:40:00Z,30.2513,-88.0778,1022.68978,1111122 
DISL,ioos:station:DISL:DISL:1,2019-01-07T03:40:00Z,30.2513,-88.0778,1023.028419,1111122 
DISL,ioos:station:DISL:DISL:1,2019-01-07T04:40:00Z,30.2513,-88.0778,1022.351141,1111122 
DISL,ioos:station:DISL:DISL:1,2019-01-07T05:40:00Z,30.2513,-88.0778,1022.351141,1111122 
DISL,ioos:station:DISL:DISL:1,2019-01-07T06:40:00Z,30.2513,-88.0778,1022.012502,1111122 
DISL,ioos:station:DISL:DISL:1,2019-01-07T15:40:00Z,30.2513,-88.0778,1024.721614,1111122 
DISL,ioos:station:DISL:DISL:1,2019-01-07T16:40:00Z,30.2513,-88.0778,1024.382975,1111122 
DISL,ioos:station:DISL:DISL:1,2019-01-07T17:40:00Z,30.2513,-88.0778,1023.367058,1111122 
DISL,ioos:station:DISL:DISL:1,2019-01-07T18:40:00Z,30.2513,-88.0778,1022.68978,1111122 
DISL,ioos:station:DISL:DISL:1,2019-01-07T19:40:00Z,30.2513,-88.0778,1022.012502,1111122 
DISL,ioos:station:DISL:DISL:1,2019-01-07T20:40:00Z,30.2513,-88.0778,1022.012502,1111122 
DISL,ioos:station:DISL:DISL:1,2019-01-07T21:40:00Z,30.2513,-88.0778,1022.351141,1111122 
DISL,ioos:station:DISL:DISL:1,2019-01-07T22:40:00Z,30.2513,-88.0778,1022.012502,1111122 
DISL,ioos:station:DISL:DISL:1,2019-01-07T23:40:00Z,30.2513,-88.0778,1022.351141,1111122 
DISL,ioos:station:DISL:DISL:1,2019-01-08T00:40:00Z,30.2513,-88.0778,1022.012502,1111122 
DISL,ioos:station:DISL:DISL:1,2019-01-08T01:40:00Z,30.2513,-88.0778,1021.335224,1111122 
DISL,ioos:station:DISL:DISL:1,2019-01-08T02:40:00Z,30.2513,-88.0778,1022.012502,1111122 
DISL,ioos:station:DISL:DISL:1,2019-01-08T03:40:00Z,30.2513,-88.0778,1022.012502,1111122 
DISL,ioos:station:DISL:DISL:1,2019-01-08T04:40:00Z,30.2513,-88.0778,1020.996585,1111122 
DISL,ioos:station:DISL:DISL:1,2019-01-08T05:40:00Z,30.2513,-88.0778,1020.996585,1111122 
DISL,ioos:station:DISL:DISL:1,2019-01-08T06:40:00Z,30.2513,-88.0778,1021.673863,1111122 
DISL,ioos:station:DISL:DISL:1,2019-01-08T07:40:00Z,30.2513,-88.0778,1022.012502,1111122 
DISL,ioos:station:DISL:DISL:1,2019-01-08T08:40:00Z,30.2513,-88.0778,1022.351141,1111122 
DISL,ioos:station:DISL:DISL:1,2019-01-08T09:40:00Z,30.2513,-88.0778,1022.012502,1111122 
DISL,ioos:station:DISL:DISL:1,2019-01-08T10:40:00Z,30.2513,-88.0778,1022.351141,1111122 
DISL,ioos:station:DISL:DISL:1,2019-01-08T11:40:00Z,30.2513,-88.0778,1022.351141,1111122 
DISL,ioos:station:DISL:DISL:1,2019-01-08T12:40:00Z,30.2513,-88.0778,1022.351141,1111122 
DISL,ioos:station:DISL:DISL:1,2019-01-08T13:40:00Z,30.2513,-88.0778,1023.367058,1111122 
DISL,ioos:station:DISL:DISL:1,2019-01-08T14:40:00Z,30.2513,-88.0778,1023.705697,1111122 
DISL,ioos:station:DISL:DISL:1,2019-01-08T15:40:00Z,30.2513,-88.0778,1024.044336,1111122 
DISL,ioos:station:DISL:DISL:1,2019-01-08T16:40:00Z,30.2513,-88.0778,1023.705697,1111122 
DISL,ioos:station:DISL:DISL:1,2019-01-08T17:40:00Z,30.2513,-88.0778,1022.012502,1111122 
DISL,ioos:station:DISL:DISL:1,2019-01-08T18:40:00Z,30.2513,-88.0778,1021.673863,1111122 
DISL,ioos:station:DISL:DISL:1,2019-01-08T19:40:00Z,30.2513,-88.0778,1021.335224,1111122 
DISL,ioos:station:DISL:DISL:1,2019-01-08T20:40:00Z,30.2513,-88.0778,1021.335224,1111122 
DISL,ioos:station:DISL:DISL:1,2019-01-08T21:40:00Z,30.2513,-88.0778,1020.996585,1111122 
DISL,ioos:station:DISL:DISL:1,2019-01-08T22:41:00Z,30.2513,-88.0778,1021.335224,1111122 
DISL,ioos:station:DISL:DISL:1,2019-01-08T23:41:00Z,30.2513,-88.0778,1020.996585,1111122 
DISL,ioos:station:DISL:DISL:1,2019-01-09T00:41:00Z,30.2513,-88.0778,1021.335224,1111122 
DISL,ioos:station:DISL:DISL:1,2019-01-09T01:41:00Z,30.2513,-88.0778,1021.673863,1111122 
DISL,ioos:station:DISL:DISL:1,2019-01-09T02:41:00Z,30.2513,-88.0778,1022.351141,1111122 
DISL,ioos:station:DISL:DISL:1,2019-01-09T03:41:00Z,30.2513,-88.0778,1022.68978,1111122 
DISL,ioos:station:DISL:DISL:1,2019-01-09T04:41:00Z,30.2513,-88.0778,1022.68978,1111122 
DISL,ioos:station:DISL:DISL:1,2019-01-09T05:41:00Z,30.2513,-88.0778,1022.68978,1111122 
DISL,ioos:station:DISL:DISL:1,2019-01-09T06:41:00Z,30.2513,-88.0778,1022.351141,1111122 
DISL,ioos:station:DISL:DISL:1,2019-01-09T07:41:00Z,30.2513,-88.0778,1023.367058,1111122 
DISL,ioos:station:DISL:DISL:1,2019-01-09T08:41:00Z,30.2513,-88.0778,1023.028419,1111122 
DISL,ioos:station:DISL:DISL:1,2019-01-09T09:41:00Z,30.2513,-88.0778,1023.367058,1111122 
DISL,ioos:station:DISL:DISL:1,2019-01-09T10:41:00Z,30.2513,-88.0778,1023.367058,1111122 
DISL,ioos:station:DISL:DISL:1,2019-01-09T11:41:00Z,30.2513,-88.0778,1023.705697,1111122 
DISL,ioos:station:DISL:DISL:1,2019-01-09T12:41:00Z,30.2513,-88.0778,1024.382975,1111122 
DISL,ioos:station:DISL:DISL:1,2019-01-09T13:40:00Z,30.2513,-88.0778,1025.737531,1111122 
DISL,ioos:station:DISL:DISL:1,2019-01-09T14:40:00Z,30.2513,-88.0778,1026.753448,1111122 
DISL,ioos:station:DISL:DISL:1,2019-01-09T17:40:00Z,30.2513,-88.0778,1025.398892,1111122 
DISL,ioos:station:DISL:DISL:1,2019-01-09T18:40:00Z,30.2513,-88.0778,1024.721614,1111122 
DISL,ioos:station:DISL:DISL:1,2019-01-09T19:40:00Z,30.2513,-88.0778,1024.044336,1111122 
DISL,ioos:station:DISL:DISL:1,2019-01-09T20:40:00Z,30.2513,-88.0778,1023.705697,1111122 
DISL,ioos:station:DISL:DISL:1,2019-01-09T21:40:00Z,30.2513,-88.0778,1023.367058,1111122 
DISL,ioos:station:DISL:DISL:1,2019-01-09T22:40:00Z,30.2513,-88.0778,1023.028419,1111122 
DISL,ioos:station:DISL:DISL:1,2019-01-09T23:40:00Z,30.2513,-88.0778,1024.044336,1111122 
DISL,ioos:station:DISL:DISL:1,2019-01-10T00:40:00Z,30.2513,-88.0778,1023.705697,1111122 
DISL,ioos:station:DISL:DISL:1,2019-01-10T01:40:00Z,30.2513,-88.0778,1024.721614,1111122 
DISL,ioos:station:DISL:DISL:1,2019-01-10T02:40:00Z,30.2513,-88.0778,1024.721614,1111122 
DISL,ioos:station:DISL:DISL:1,2019-01-10T03:40:00Z,30.2513,-88.0778,1024.721614,1111122 
DISL,ioos:station:DISL:DISL:1,2019-01-10T04:40:00Z,30.2513,-88.0778,1024.721614,1111122 
DISL,ioos:station:DISL:DISL:1,2019-01-10T05:40:00Z,30.2513,-88.0778,1024.721614,1111122 
DISL,ioos:station:DISL:DISL:1,2019-01-10T06:40:00Z,30.2513,-88.0778,1024.721614,1111122 
DISL,ioos:station:DISL:DISL:1,2019-01-10T07:40:00Z,30.2513,-88.0778,1024.721614,1111122 
DISL,ioos:station:DISL:DISL:1,2019-01-10T08:40:00Z,30.2513,-88.0778,1024.721614,1111122 
DISL,ioos:station:DISL:DISL:1,2019-01-10T09:40:00Z,30.2513,-88.0778,1024.044336,1111122 
DISL,ioos:station:DISL:DISL:1,2019-01-10T10:40:00Z,30.2513,-88.0778,1024.382975,1111122 
DISL,ioos:station:DISL:DISL:1,2019-01-10T11:40:00Z,30.2513,-88.0778,1024.044336,1111122 
DISL,ioos:station:DISL:DISL:1,2019-01-10T12:40:00Z,30.2513,-88.0778,1024.721614,1111122 
DISL,ioos:station:DISL:DISL:1,2019-01-10T13:40:00Z,30.2513,-88.0778,1025.737531,1111122 
DISL,ioos:station:DISL:DISL:1,2019-01-10T14:40:00Z,30.2513,-88.0778,1025.737531,1111122 
DISL,ioos:station:DISL:DISL:1,2019-01-10T16:10:00Z,30.2513,-88.0778,1026.07617,1111122 
DISL,ioos:station:DISL:DISL:1,2019-01-10T16:40:00Z,30.2513,-88.0778,1025.060253,1111122 
DISL,ioos:station:DISL:DISL:1,2019-01-10T17:40:00Z,30.2513,-88.0778,1024.044336,1111122 
DISL,ioos:station:DISL:DISL:1,2019-01-10T19:10:00Z,30.2513,-88.0778,1022.351141,1111122 
DISL,ioos:station:DISL:DISL:1,2019-01-10T20:10:00Z,30.2513,-88.0778,1022.351141,1111122 
DISL,ioos:station:DISL:DISL:1,2019-01-10T20:40:00Z,30.2513,-88.0778,1022.68978,1111122 
DISL,ioos:station:DISL:DISL:1,2019-01-10T21:40:00Z,30.2513,-88.0778,1022.012502,1111122 
DISL,ioos:station:DISL:DISL:1,2019-01-10T23:10:00Z,30.2513,-88.0778,1023.028419,1111122 
DISL,ioos:station:DISL:DISL:1,2019-01-10T23:40:00Z,30.2513,-88.0778,1023.028419,1111122 
DISL,ioos:station:DISL:DISL:1,2019-01-11T00:40:00Z,30.2513,-88.0778,1023.028419,1111122 
DISL,ioos:station:DISL:DISL:1,2019-01-11T01:40:00Z,30.2513,-88.0778,1023.028419,1111122 
DISL,ioos:station:DISL:DISL:1,2019-01-11T02:40:00Z,30.2513,-88.0778,1022.68978,1111122 
DISL,ioos:station:DISL:DISL:1,2019-01-11T03:40:00Z,30.2513,-88.0778,1023.705697,1111122 
DISL,ioos:station:DISL:DISL:1,2019-01-11T04:40:00Z,30.2513,-88.0778,1023.367058,1111122 
DISL,ioos:station:DISL:DISL:1,2019-01-11T05:40:00Z,30.2513,-88.0778,1022.68978,1111122 
DISL,ioos:station:DISL:DISL:1,2019-01-11T06:40:00Z,30.2513,-88.0778,1023.028419,1111122 
DISL,ioos:station:DISL:DISL:1,2019-01-11T07:40:00Z,30.2513,-88.0778,1024.044336,1111122 
DISL,ioos:station:DISL:DISL:1,2019-01-11T08:40:00Z,30.2513,-88.0778,1023.705697,1111122 
DISL,ioos:station:DISL:DISL:1,2019-01-11T09:40:00Z,30.2513,-88.0778,1023.705697,1111122 
DISL,ioos:station:DISL:DISL:1,2019-01-11T10:40:00Z,30.2513,-88.0778,1023.367058,1111122 
DISL,ioos:station:DISL:DISL:1,2019-01-11T11:40:00Z,30.2513,-88.0778,1023.705697,1111122 
DISL,ioos:station:DISL:DISL:1,2019-01-11T12:40:00Z,30.2513,-88.0778,1023.705697,1111122 
DISL,ioos:station:DISL:DISL:1,2019-01-11T13:40:00Z,30.2513,-88.0778,1023.367058,1111122 
DISL,ioos:station:DISL:DISL:1,2019-01-11T14:40:00Z,30.2513,-88.0778,1024.044336,1111122 
DISL,ioos:station:DISL:DISL:1,2019-01-11T15:40:00Z,30.2513,-88.0778,1024.721614,1111122 
DISL,ioos:station:DISL:DISL:1,2019-01-11T16:40:00Z,30.2513,-88.0778,1024.721614,1111122 
DISL,ioos:station:DISL:DISL:1,2019-01-11T17:40:00Z,30.2513,-88.0778,1023.367058,1111122 
DISL,ioos:station:DISL:DISL:1,2019-01-11T18:40:00Z,30.2513,-88.0778,1022.68978,1111122 
DISL,ioos:station:DISL:DISL:1,2019-01-11T19:40:00Z,30.2513,-88.0778,1022.351141,1111122 
DISL,ioos:station:DISL:DISL:1,2019-01-11T21:10:00Z,30.2513,-88.0778,1022.012502,1111122 
DISL,ioos:station:DISL:DISL:1,2019-01-11T22:10:00Z,30.2513,-88.0778,1022.351141,1111122 
DISL,ioos:station:DISL:DISL:1,2019-01-11T23:10:00Z,30.2513,-88.0778,1021.673863,1111122 
DISL,ioos:station:DISL:DISL:1,2019-01-11T23:40:00Z,30.2513,-88.0778,1022.012502,1111122 
DISL,ioos:station:DISL:DISL:1,2019-01-12T00:40:00Z,30.2513,-88.0778,1021.335224,1111122 
DISL,ioos:station:DISL:DISL:1,2019-01-12T01:40:00Z,30.2513,-88.0778,1021.335224,1111122 
DISL,ioos:station:DISL:DISL:1,2019-01-12T02:40:00Z,30.2513,-88.0778,1021.335224,1111122 
DISL,ioos:station:DISL:DISL:1,2019-01-12T03:40:00Z,30.2513,-88.0778,1020.996585,1111122 
DISL,ioos:station:DISL:DISL:1,2019-01-12T04:40:00Z,30.2513,-88.0778,1020.657946,1111122 
DISL,ioos:station:DISL:DISL:1,2019-01-12T05:40:00Z,30.2513,-88.0778,1020.996585,1111122 
DISL,ioos:station:DISL:DISL:1,2019-01-12T06:40:00Z,30.2513,-88.0778,1020.657946,1111122 
DISL,ioos:station:DISL:DISL:1,2019-01-12T07:40:00Z,30.2513,-88.0778,1020.319307,1111122 
DISL,ioos:station:DISL:DISL:1,2019-01-12T08:40:00Z,30.2513,-88.0778,1019.980668,1111122 
DISL,ioos:station:DISL:DISL:1,2019-01-12T09:40:00Z,30.2513,-88.0778,1019.30339,1111122 
DISL,ioos:station:DISL:DISL:1,2019-01-12T10:40:00Z,30.2513,-88.0778,1018.626112,1111122 
DISL,ioos:station:DISL:DISL:1,2019-01-12T11:40:00Z,30.2513,-88.0778,1019.30339,1111122 
DISL,ioos:station:DISL:DISL:1,2019-01-12T12:40:00Z,30.2513,-88.0778,1019.642029,1111122 
DISL,ioos:station:DISL:DISL:1,2019-01-12T13:40:00Z,30.2513,-88.0778,1019.642029,1111122 
DISL,ioos:station:DISL:DISL:1,2019-01-12T14:40:00Z,30.2513,-88.0778,1019.980668,1111122 
DISL,ioos:station:DISL:DISL:1,2019-01-12T15:40:00Z,30.2513,-88.0778,1020.657946,1111122 
DISL,ioos:station:DISL:DISL:1,2019-01-12T16:40:00Z,30.2513,-88.0778,1019.642029,1111122 
DISL,ioos:station:DISL:DISL:1,2019-01-12T17:40:00Z,30.2513,-88.0778,1018.964751,1111122 
DISL,ioos:station:DISL:DISL:1,2019-01-12T18:40:00Z,30.2513,-88.0778,1017.610195,1111122 
DISL,ioos:station:DISL:DISL:1,2019-01-12T19:40:00Z,30.2513,-88.0778,1017.271556,1111122 
DISL,ioos:station:DISL:DISL:1,2019-01-12T20:40:00Z,30.2513,-88.0778,1016.594278,1111122 
DISL,ioos:station:DISL:DISL:1,2019-01-12T21:40:00Z,30.2513,-88.0778,1016.255639,1111122 
DISL,ioos:station:DISL:DISL:1,2019-01-12T23:10:00Z,30.2513,-88.0778,1016.932917,1111122 
DISL,ioos:station:DISL:DISL:1,2019-01-12T23:40:00Z,30.2513,-88.0778,1016.932917,1111122 
DISL,ioos:station:DISL:DISL:1,2019-01-13T00:40:00Z,30.2513,-88.0778,1017.271556,1111122 
DISL,ioos:station:DISL:DISL:1,2019-01-13T01:40:00Z,30.2513,-88.0778,1017.948834,1111122 
DISL,ioos:station:DISL:DISL:1,2019-01-13T02:40:00Z,30.2513,-88.0778,1018.287473,1111122 
DISL,ioos:station:DISL:DISL:1,2019-01-13T03:40:00Z,30.2513,-88.0778,1018.626112,1111122 
DISL,ioos:station:DISL:DISL:1,2019-01-13T04:40:00Z,30.2513,-88.0778,1018.626112,1111122 
DISL,ioos:station:DISL:DISL:1,2019-01-13T05:40:00Z,30.2513,-88.0778,1017.948834,1111122 
DISL,ioos:station:DISL:DISL:1,2019-01-13T06:40:00Z,30.2513,-88.0778,1018.626112,1111122 
DISL,ioos:station:DISL:DISL:1,2019-01-13T07:40:00Z,30.2513,-88.0778,1018.626112,1111122 
DISL,ioos:station:DISL:DISL:1,2019-01-13T08:40:00Z,30.2513,-88.0778,1018.626112,1111122 
DISL,ioos:station:DISL:DISL:1,2019-01-13T09:40:00Z,30.2513,-88.0778,1019.30339,1111122 
DISL,ioos:station:DISL:DISL:1,2019-01-13T10:40:00Z,30.2513,-88.0778,1019.642029,1111122 